Location: Cactus School
(34.5700°N, 118.0931°W)
Time: 11:08:19
(UTC-07:00)

Courier 1B - Pass Details

Date: 25 April 2024
Orbit: 962 x 1208 km, 28.3° (Epoch: 11 May)

Event Time Altitude Azimuth Distance (km) Brightness Sun altitude
Exits shadow 04:03:21 44° 213° (SSW) 1,490 8.0 -23.7°
Maximum altitude 04:04:19 46° 191° (SSW) 1,435 8.0 -23.5°
Drops below altitude 10° 04:10:58 10° 120° (ESE) 2,859 10.2 -22.4°
Sets 04:13:43 0° 115° (ESE) 3,776 11.0 -21.9°
